sat.trackr.live / text

‹ back to catalog

STARLINK-3352

NORAD 51147 · 2022-005AV

PAYLOAD ACTIVE UNKNOWN

§ Identity

Operator
Country
US
Launch date
2022-01-19
Launch site
AFETR
Launch vehicle
Mass (kg)
RCS (m²)

Purposes: comms

External: N2YO · Heavens-Above · Gunter

§ Orbital elements

Epoch: 2026-09-20T04:47:09.143232Z

Period
93.66 min
Inclination
53.1856°
Eccentricity
0.0003292
Mean motion
15.37423315 rev/d
Perigee alt
451.5 km
Apogee alt
456.0 km
Semi-major
6,831.9 km
B*
6.4115e-4
RAAN
112.2135°
Arg perigee
142.0315°
Mean anomaly
218.0922°
Rev number
25,857

§ Raw data

STARLINK-33521 51147U 22005AV  26263.19941138  .00023556  00000+0  64115-3 0  99922 51147  53.1856 112.2135 0003292 142.0315 218.0922 15.37423315258570

JSON: /api/v1/satellites/51147 · /tle

For live sub-satellite position, see the globe view (requires WebGL).

§ Visibility from observer

Set your observer location to see the next 7 days of passes ≥ 10°. The values pass through the URL so the page stays shareable.

No JS? Fill the form by hand. The geolocation button needs JavaScript.